Terug naar catalogus

STARLINK-37962

ActiefCommunicatieSSO
NORAD 69693·PAYLOAD·🇺🇸 United States

Gelanceerd Jun 25, 2026 vanaf Vandenberg Space Force Base

Loading…

Volgende Passages (komende 24 uur)

TLE

VersSource: CelesTrak SupGP

Epoch: Sep 14, 2026, 21:39 UTC

1 69693C 26145S   26257.90256944  .00067490  00000+0  20942-2 0  2573
2 69693  97.2849 104.7038 0001463  90.2788 103.4869 15.33417485    18

Volg STARLINK-37962 in realtime met AllMySat

Download on the App Store